Location: Unspecified
(0.0000°N, 0.0000°E)
Time: 04:03:57
(UTC+00:00)

Vanguard 2 Rocket - Visible Passes

Search period start: 25 February 2018 00:00
Search period end: 07 March 2018 00:00
Orbit: 555 x 3327 km, 32.9° (Epoch: 24 February)

Date Brightness Start Highest point End Pass type
(mag) Time Alt. Az. Time Alt. Az. Time Alt. Az.
25 Feb 10.2 02:48:39 32° N 02:53:57 36° NNE 03:10:37 10° E visible
25 Feb 9.6 04:54:30 13° NW 05:14:03 78° NE 05:29:23 10° ESE visible
25 Feb 8.3 18:46:04 10° W 18:50:38 32° NNW 18:57:36 10° NE visible
25 Feb 9.9 21:03:46 10° NNW 21:06:40 13° NNW 21:06:40 13° NNW visible
26 Feb 10.4 01:52:52 28° NE 01:52:52 28° NE 02:06:46 10° ENE visible
26 Feb 9.8 03:58:43 28° NW 04:11:45 61° NE 04:28:40 10° ESE visible
26 Feb 9.5 20:02:53 10° NW 20:06:27 14° NNW 20:10:51 10° NNE visible
27 Feb 10.9 00:57:07 15° NE 00:57:07 15° NE 01:01:15 10° ENE visible
27 Feb 9.9 03:02:57 40° N 03:09:10 48° NNE 03:26:57 10° ESE visible
27 Feb 9.5 05:08:48 12° WNW 05:28:32 81° SW 05:43:59 10° SE visible
27 Feb 9.0 19:02:23 10° WNW 19:05:59 17° NNW 19:10:45 10° NNE visible
28 Feb 10.2 02:07:15 37° NE 02:07:15 37° NE 02:24:01 10° E visible
28 Feb 9.5 04:13:06 30° NW 04:26:23 80° NE 04:43:40 10° ESE visible
01 Mar 10.7 01:11:34 22° ENE 01:11:34 22° ENE 01:19:34 10° E visible
01 Mar 9.7 03:17:25 49° NNW 03:23:57 64° NE 03:42:31 10° ESE visible
01 Mar 9.6 05:23:16 11° WNW 05:42:54 62° SW 05:58:12 10° SE visible
02 Mar 9.8 02:21:45 49° NE 02:21:45 49° NE 02:40:20 10° ESE visible
02 Mar 9.5 04:27:36 30° WNW 04:40:48 80° SW 04:58:12 10° SE visible
03 Mar 10.4 01:26:04 30° ENE 01:26:04 30° ENE 01:36:53 10° E visible
03 Mar 9.5 03:31:56 56° NW 03:38:28 82° NE 03:57:27 10° ESE visible
03 Mar 9.8 05:38:27 10° WNW 05:57:22 46° SW 06:12:11 10° SSE visible
04 Mar 11.0 00:30:24 12° ENE 00:30:24 12° ENE 00:31:54 10° E visible
04 Mar 9.5 02:36:14 65° NE 02:36:14 65° NE 02:55:50 10° ESE visible
04 Mar 9.6 04:42:05 27° WNW 04:55:15 61° SW 05:12:23 10° SE visible
05 Mar 10.1 01:40:32 40° ENE 01:40:32 40° ENE 01:53:10 10° ESE visible
05 Mar 9.4 03:46:23 55° WNW 03:52:53 78° SW 04:11:55 10° SE visible
06 Mar 10.8 00:44:47 18° E 00:44:47 18° E 00:49:15 10° E visible
06 Mar 9.3 02:50:38 84° NE 02:50:38 84° NE 03:10:43 10° SE visible
06 Mar 9.9 04:56:29 22° W 05:09:52 46° SW 05:26:20 10° SE visible
